Date,TemperatureHighF,TemperatureAvgF,TemperatureLowF,DewpointHighF,DewpointAvgF,DewpointLowF,HumidityHigh,HumidityAvg,HumidityLow,PressureMaxIn,PressureMinIn,WindSpeedMaxMPH,WindSpeedAvgMPH,GustSpeedMaxMPH,PrecipitationSumIn
2013-2-1,31.1,24.9,18.9,5.6,-0.5,-5.7,38,29,23,29.62,29.18,12,6,26,0.00
2013-2-2,30.8,20.9,13.3,14.0,0.2,-5.5,70,37,23,29.71,29.38,9,3,15,0.00
2013-2-3,34.1,24.2,18.9,18.2,11.2,5.1,74,55,32,29.38,29.06,9,1,14,0.00
2013-2-4,31.2,23.7,17.4,7.9,0.3,-3.2,44,32,23,29.38,29.12,10,4,18,0.00
2013-2-5,31.6,27.6,23.5,25.8,16.8,6.6,82,61,43,29.32,29.18,3,0,4,0.00
2013-2-6,39.0,30.2,23.0,25.1,13.8,2.2,96,54,24,29.68,29.23,10,3,15,0.04
2013-2-7,33.9,26.1,17.1,9.9,3.8,-0.4,49,36,23,29.88,29.65,5,1,7,0.00
2013-2-8,33.6,31.2,28.2,29.9,23.7,9.5,100,74,41,29.65,29.00,8,-207,12,0.00
2013-2-9,40.9,26.9,13.5,30.4,7.1,-5.4,100,46,21,29.71,29.09,12,-37,18,0.13
2013-2-10,48.9,27.1,11.1,8.5,0.6,-6.2,53,30,19,29.85,29.59,7,-44,8,0.20
2013-2-11,44.6,35.9,28.2,44.6,29.0,7.0,100,76,35,29.62,28.97,4,-311,6,0.25
2013-2-12,45.2,38.1,29.8,37.5,13.0,8.4,100,37,22,29.38,29.09,13,-58,23,0.00
2013-2-13,47.6,33.5,21.4,25.7,14.6,10.4,76,47,24,29.35,29.00,4,-49,5,0.00
2013-2-14,48.9,36.6,27.3,31.5,19.0,7.0,93,55,19,29.41,29.03,6,1,10,0.09
2013-2-15,58.6,41.6,28.6,29.6,17.9,10.0,86,44,17,29.44,29.29,7,3,14,0.00
2013-2-16,39.4,32.4,26.6,29.9,16.0,-0.5,90,53,26,29.41,29.09,8,3,13,0.08
2013-2-17,31.9,24.4,16.3,1.7,-4.0,-11.8,27,24,22,29.38,29.00,14,8,24,0.00
2013-2-18,37.4,24.2,13.8,1.8,-4.6,-11.7,31,25,21,29.68,29.38,15,6,24,0.00
2013-2-19,44.3,34.0,24.0,41.4,18.7,-2.1,100,57,23,29.47,29.00,11,3,19,0.00
2013-2-20,33.6,27.2,21.7,12.6,1.4,-2.7,41,29,23,29.38,29.06,14,8,24,0.00
2013-2-21,37.5,26.6,20.5,4.4,1.3,-1.3,43,31,21,29.59,29.35,12,7,22,0.00
2013-2-22,37.9,28.9,18.7,18.7,9.4,3.4,56,43,29,29.80,29.53,6,2,8,0.00
2013-2-23,41.6,36.9,32.0,41.0,34.5,18.3,100,92,56,29.59,29.15,6,2,8,0.45
2013-2-24,47.3,36.1,29.4,39.8,24.3,11.8,100,66,31,29.38,29.12,10,4,17,0.04
2013-2-25,47.5,34.2,26.2,18.9,14.3,11.8,60,43,27,29.62,29.38,8,2,15,0.00
2013-2-26,45.5,34.7,25.2,33.9,20.8,14.7,99,58,32,29.68,29.21,9,3,16,0.21
2013-2-27,48.9,41.0,34.2,47.5,35.1,26.4,100,82,47,29.21,28.88,9,4,14,0.33
2013-2-28,51.1,40.0,32.8,31.4,22.8,12.2,80,53,27,29.03,28.91,7,3,14,0.00